This is the latest recevied weather packets stored in our database for station/object KB1WCR. If no packets are shown the sender has not sent any weather packets the latest 10 day(s).
| Time | Temp. | Humidity | Pressure | Rain* | Wind** | Luminosity | Snow |
|---|---|---|---|---|---|---|---|
| 1777122485 | 8.33° C | 58% | 1019.3 hPa | 0 mm | - | 468 W/m² | - |
| 1777122182 | 7.78° C | 58% | 1019.1 hPa | 0 mm | - | 453 W/m² | - |
| 1777121877 | 7.22° C | 60% | 1019.1 hPa | 0 mm | - | 441 W/m² | - |
| 1777121574 | 7.78° C | 59% | 1019 hPa | 0 mm | - | 427 W/m² | - |
| 1777121270 | 7.22° C | 61% | 1019 hPa | 0 mm | - | 411 W/m² | - |
| 1777120967 | 7.22° C | 61% | 1019.1 hPa | 0 mm | - | 394 W/m² | - |
| 1777120663 | 7.22° C | 62% | 1019.1 hPa | 0 mm | - | 382 W/m² | - |
| 1777120359 | 6.67° C | 65% | 1019.2 hPa | 0 mm | - | 367 W/m² | - |
| 1777120053 | 6.11° C | 63% | 1019.2 hPa | 0 mm | - | 351 W/m² | - |
| 1777119744 | 6.11° C | 66% | 1019 hPa | 0 mm | - | 336 W/m² | - |
| 1777119440 | 6.11° C | 66% | 1018.9 hPa | 0 mm | - | 321 W/m² | - |
| 1777119140 | 6.11° C | 67% | 1019.1 hPa | 0 mm | - | 305 W/m² | - |
| 1777118835 | 6.11° C | 68% | 1018.9 hPa | 0 mm | - | 289 W/m² | - |
| 1777118533 | 6.11° C | 70% | 1019.1 hPa | 0 mm | - | 271 W/m² | - |
| 1777118233 | 5° C | 74% | 1018.8 hPa | 0 mm | - | 257 W/m² | - |
| 1777117930 | 4.44° C | 74% | 1018.8 hPa | 0 mm | - | 245 W/m² | - |
| 1777117627 | 3.89° C | 75% | 1018.8 hPa | 0 mm | - | 229 W/m² | - |
| 1777117324 | 3.89° C | 76% | 1019 hPa | 0 mm | - | 214 W/m² | - |
| 1777117020 | 3.33° C | 79% | 1019 hPa | 0 mm | - | 199 W/m² | - |
| 1777116715 | 3.33° C | 80% | 1018.8 hPa | 0 mm | - | 183 W/m² | - |
| 1777116411 | 2.78° C | 81% | 1018.5 hPa | 0 mm | - | 166 W/m² | - |
| 1777116107 | 2.78° C | 82% | 1018.8 hPa | 0 mm | - | 151 W/m² | - |
| 1777115801 | 2.22° C | 83% | 1018.6 hPa | 0 mm | - | 138 W/m² | - |
| 1777115498 | 1.67° C | 86% | 1018.6 hPa | 0 mm | - | 127 W/m² | - |
| 1777115194 | 1.67° C | 84% | 1018.6 hPa | 0 mm | - | 128 W/m² | - |
* Rain latest hour (hover to see other rain measurements)
** Current wind speed in m/s (hover to see current wind gust speed)